sat.trackr.live / text

‹ back to catalog

USA 283

NORAD 43339 · 2018-036A

PAYLOAD ACTIVE UNKNOWN

§ Identity

Operator
Country
US
Launch date
2018-04-14
Launch site
AFETR
Launch vehicle
Mass (kg)
RCS (m²)

Purposes: comms

External: N2YO · Heavens-Above · Gunter

§ Orbital elements

Epoch: 2026-09-17T12:34:41.602368Z

Period
1,436.11 min
Inclination
0.0127°
Eccentricity
0.0000046
Mean motion
1.00270637 rev/d
Perigee alt
35,786.7 km
Apogee alt
35,787.1 km
Semi-major
42,165.1 km
B*
0.0000e+0
RAAN
153.0002°
Arg perigee
98.6954°
Mean anomaly
67.5107°
Rev number
2,621

§ Raw data

USA 2831 43339U 18036A   26260.52409262  .00000000  00000+0  00000+0 0  99942 43339   0.0127 153.0002 0000046  98.6954  67.5107  1.00270637 26219

JSON: /api/v1/satellites/43339 · /tle

For live sub-satellite position, see the globe view (requires WebGL).

§ Visibility from observer

Set your observer location to see the next 7 days of passes ≥ 10°. The values pass through the URL so the page stays shareable.

No JS? Fill the form by hand. The geolocation button needs JavaScript.